Location: Carrer del Canonge
(41.4901°N, 2.2931°E)
Time: 05:08:53
(UTC+00:00)

SL-08 RB Rocket - Pass Details

Date: 18 September 2020
Orbit: 646 x 684 km, 97.8° (Epoch: 25 October)

Event Time Altitude Azimuth Distance (km) Brightness Sun altitude
Exits shadow 19:32:42 15° 171° (S) 1,810 5.7 -18.9°
Maximum altitude 19:36:35 80° 258° (WSW) 688 3.8 -19.5°
Drops below altitude 10° 19:41:11 10° 345° (NNW) 2,097 6.7 -20.3°
Sets 19:43:24 0° 347° (NNW) 3,008 7.6 -20.7°
